TimeMST,TemperatureF,Dew PointF,Humidity,Sea Level PressureIn,VisibilityMPH,Wind Direction,Wind SpeedMPH,Gust SpeedMPH,PrecipitationIn,Events,Conditions,WindDirDegrees,DateUTC
12:53 AM,81.0,66.9,62,29.93,10.0,Calm,Calm,-,N/A,,Mostly Cloudy,0,2012-09-05 07:53:00
1:53 AM,79.0,66.9,66,29.93,10.0,WSW,3.5,-,N/A,,Partly Cloudy,250,2012-09-05 08:53:00
2:53 AM,78.1,66.9,68,29.91,10.0,Calm,Calm,-,N/A,,Partly Cloudy,0,2012-09-05 09:53:00
3:53 AM,78.1,66.9,68,29.90,10.0,Calm,Calm,-,N/A,,Clear,0,2012-09-05 10:53:00
4:53 AM,75.9,69.1,79,29.90,10.0,South,5.8,-,N/A,,Clear,170,2012-09-05 11:53:00
5:53 AM,75.9,69.1,79,29.91,10.0,Calm,Calm,-,N/A,,Clear,0,2012-09-05 12:53:00
6:53 AM,77.0,69.1,76,29.94,10.0,NNW,4.6,-,N/A,,Clear,330,2012-09-05 13:53:00
7:53 AM,78.1,68.0,71,29.94,10.0,Calm,Calm,-,N/A,,Scattered Clouds,0,2012-09-05 14:53:00
8:53 AM,81.0,68.0,65,29.94,10.0,West,6.9,-,N/A,,Clear,260,2012-09-05 15:53:00
9:53 AM,82.9,66.0,56,29.93,10.0,West,8.1,-,N/A,,Scattered Clouds,280,2012-09-05 16:53:00
10:53 AM,86.0,66.0,51,29.92,10.0,West,8.1,-,N/A,,Mostly Cloudy,270,2012-09-05 17:53:00
11:53 AM,88.0,66.0,48,29.89,10.0,SW,5.8,-,N/A,,Partly Cloudy,230,2012-09-05 18:53:00
12:53 PM,91.0,61.0,36,29.86,10.0,Variable,6.9,-,N/A,,Clear,0,2012-09-05 19:53:00
1:53 PM,91.0,63.0,39,29.83,10.0,Variable,5.8,18.4,N/A,,Mostly Cloudy,0,2012-09-05 20:53:00
2:53 PM,93.9,63.0,36,29.80,10.0,NNW,13.8,17.3,N/A,,Mostly Cloudy,330,2012-09-05 21:53:00
3:53 PM,91.0,62.1,38,29.79,10.0,NW,8.1,16.1,N/A,,Clear,320,2012-09-05 22:53:00
4:53 PM,93.0,62.1,36,29.78,10.0,NW,10.4,-,N/A,,Partly Cloudy,310,2012-09-05 23:53:00
5:53 PM,91.9,62.1,37,29.79,10.0,WNW,8.1,-,N/A,,Partly Cloudy,290,2012-09-06 00:53:00
6:53 PM,89.1,62.1,40,29.81,10.0,West,10.4,-,N/A,,Partly Cloudy,280,2012-09-06 01:53:00
7:53 PM,88.0,63.0,43,29.83,10.0,WNW,15.0,21.9,N/A,,Clear,290,2012-09-06 02:53:00
8:53 PM,84.9,66.0,53,29.84,10.0,West,10.4,-,N/A,,Clear,270,2012-09-06 03:53:00
9:53 PM,84.0,66.9,56,29.85,10.0,West,10.4,-,N/A,,Clear,280,2012-09-06 04:53:00
10:53 PM,82.0,69.1,65,29.86,10.0,West,4.6,-,N/A,,Clear,260,2012-09-06 05:53:00
11:53 PM,81.0,69.1,67,29.86,10.0,WSW,4.6,-,N/A,,Clear,240,2012-09-06 06:53:00